Regional Weather Roundup
Issued by NWS

Home | Current Version | Previous Version | Graphics & Text | Print | Product List | Glossary On
Versions: 1 2 3 4 5 6 7 8 9 10 11 12 13 14 15 16 17 18 19 20 21 22 23 24 25 26 27 28 29 30 31 32 33 34 35 36 37 38 39 40 41 42 43 44 45 46 47 48 49 50
000
ASUS43 KLOT 181103
RWRIL

ILLINOIS REGIONAL WEATHER ROUNDUP
NATIONAL WEATHER SERVICE CHICAGO/ROMEOVILLE IL
500 AM CST WED JAN 18 2017

NOTE: "FAIR" INDICATES FEW OR NO CLOUDS BELOW 12,000 FEET WITH NO
SIGNIFICANT WEATHER AND/OR OBSTRUCTIONS TO VISIBILITY.

* THESE STATIONS ARE NOT UNDER NWS QUALITY CONTROL. THEY ALSO MAY NOT
  REPORT WEATHER SUCH AS PRECIPITATION OR FOG.

ILZ001-002-007-009-015-016-024-181200-
NORTHWEST ILLINOIS

CITY           SKY/WX    TMP DP  RH WIND       PRES   REMARKS
MOLINE         CLOUDY    35  32  88 W9        30.12F WCI  28
STERLING*      CLOUDY    33  33 100 W12       30.12F WCI  24
SAVANNA*       CLOUDY    34  32  94 W7        30.12S WCI  28
$$

ILZ003-004-008-010-011-017-018-181200-
NORTH CENTRAL ILLINOIS

CITY           SKY/WX    TMP DP  RH WIND       PRES   REMARKS
ROCKFORD       DRIZZLE   34  32  92 W10       30.12R FOG     WCI  26
FREEPORT*      CLOUDY    32  32  99 W12G17    30.11S FOG     WCI  23
ROCHELLE*      CLOUDY    32  32  99 W16       30.12R WCI  21
DE KALB*       CLOUDY    33  33  99 W10       30.10R FOG     WCI  25
$$

ILZ005-006-012>014-019>023-181200-
NORTHEAST ILLINOIS

CITY           SKY/WX    TMP DP  RH WIND       PRES   REMARKS
CHICAGO-OHARE  DRIZZLE   34  33  96 W9        30.08R FOG     WCI  27
CHICAGO-MIDWAY CLOUDY    33  32  96 W12       30.10R FOG     WCI  24
AURORA         CLOUDY    35  33  92 W13       30.10R FOG     WCI  26
LANSING*       CLOUDY    34  34 100 W9        30.11R FOG     WCI  26
JOLIET*        CLOUDY    35  35  99 W12       30.12R FOG     WCI  27
WAUKEGAN       CLOUDY    35  33  92 VRB6      30.06R WCI  30
DUPAGE AIRPORT CLOUDY    34  32  92 W8        30.09R FOG     WCI  27
WHEELING       CLOUDY    35  32  88 W8        30.09R WCI  29
MORRIS*        CLOUDY    33  32  96 W14       30.12R FOG     WCI  24
ROMEOVILLE*    CLOUDY    33  33 100 W12       30.11R FOG     WCI  24
NORTHERLY ISL    N/A     35  33  92 W9          N/A  WCI  28
$$

LMZ740>746-181200-
SOUTHERN LAKE MICHIGAN

STATION/POSITION SKY/WX   TEMP    WIND        PRES    VSBY  WAVE
                          AIR SEA DIR/SP/G                  HT/PER
                          (F)     (DEG/KT/KT) (MB)    (MI)  (FT/S)
HARRISON CRIB              36     280/ 12/ 13   N/A
BURNHAM HARBOR             35     240/ 12/ 12   N/A
CALUMET HARBOR             34     230/  6/ 13 1018.4R
BURNS HARBOR               34     250/ 14/ 16 1019.6R
$$

ILZ025>027-034>036-040-047-049-050-058-095>099-181200-
WEST-CENTRAL ILLINOIS

CITY           SKY/WX    TMP DP  RH WIND       PRES   REMARKS
QUINCY         CLOUDY    34  31  88 W7        30.16F WCI  28
GALESBURG*     CLOUDY    34  33  95 W7        30.15S WCI  28
MACOMB*        CLOUDY    33  32  94 W8        30.18S WCI  26
JACKSONVILLE*  CLOUDY    35  32  87 W6        30.18R WCI  30
PITTSFIELD*    CLOUDY    35  32  87 W6        30.18S WCI  30
$$

ILZ028>032-037-038-041>044-048-051>054-059>061-181200-
CENTRAL ILLINOIS

CITY           SKY/WX    TMP DP  RH WIND       PRES   REMARKS
BLOOMINGTON    CLOUDY    34  33  96 W15G21    30.15R WCI  24
DECATUR        CLOUDY    36  35  96 NW10      30.17R WCI  28
PEORIA         CLOUDY    36  34  92 W7        30.15S WCI  30
LACON*         CLOUDY    34  33  97 W7        30.15R WCI  28
LINCOLN*       CLOUDY    37  36  94 W6        30.17S WCI  32
SPRINGFIELD    CLOUDY    38  34  85 NW10      30.17S WCI  31
TAYLORVILLE    CLOUDY    36  34  91 W6        30.18S WCI  31
$$

ILZ033-039-045-046-055>057-062-063-181200-
EAST-CENTRAL ILLINOIS

CITY           SKY/WX    TMP DP  RH WIND       PRES   REMARKS
CHAMPAIGN      CLOUDY    36  33  89 W16       30.16R WCI  26
MATTOON        CLOUDY    37  35  92 NW13      30.16R WCI  29
$$

ILZ079-100>102-181200-
SOUTHWEST ILLINOIS

CITY           SKY/WX    TMP DP  RH WIND       PRES   REMARKS
ALTON          CLOUDY    37  32  85 NW8       30.20R WCI  30
BELLEVILLE     CLOUDY    39  37  91 NW3       30.19R
CAHOKIA*       CLOUDY    40  32  73 W7        30.20R
SPARTA*        CLOUDY    38  34  85 NW5       30.21S WCI  35
$$

ILZ064>066-069>071-074>076-080>082-084>086-088>090-092>094-181200-
SOUTH-CENTRAL ILLINOIS

CITY           SKY/WX    TMP DP  RH WIND       PRES   REMARKS
CARBONDALE     CLOUDY    40  37  89 NW5       30.21R
CAIRO*         CLOUDY    41  38  89 N3        30.20R
EFFINGHAM*     CLOUDY    38  37  99 NW10      30.19S WCI  30
MARION         CLOUDY    41  39  93 NW3       30.21S
MT. VERNON     CLOUDY    39  34  82 CALM      30.21R
CENTRALIA*     CLOUDY    39  36  88 NW5       30.20R
SALEM*         CLOUDY    40  36  86 NW5       30.19R
$$

ILZ067-068-072-073-078-083-087-091-181200-
SOUTHEAST ILLINOIS

CITY           SKY/WX    TMP DP  RH WIND       PRES   REMARKS
LAWRENCEVILLE  CLOUDY    39  38  96 NW8       30.19R WCI  33
FLORA*         CLOUDY    40  37  89 NW3       30.20R
HARRISBURG*    CLOUDY    40  37  90 NW3       30.22R
ROBINSON*      CLOUDY    37  36  93 NW7       30.19S WCI  32
CARMI*         CLOUDY    40  37  89 W8        30.20R
$$

ABBREVIATIONS USED IN REMARKS
   TC - TEMPERATURE IN CELSIUS
  WCI - WIND CHILL INDEX
   HX - HEAT INDEX
  VSB - VISIBILITY
$$





USA.gov is the U.S. government's official web portal to all federal, state and local government web resources and services.